Presure
207 185 74 76 80 84 84 78 88 86 87 84 78 215 285 285 286 289 350 345 331 335 270 255 245 252 235 252 241 236 217 212 225 211 216 194 211 191 207 222 222 231 265
91 91 89 88 89 88 87 91 122 87 126 303 291 285 332 335 332 332 326 326 271 276 256 243 218 214 256 240 235 223 225 221 206 190 205 204 193 195 217 212 211 233 261
141 151 88 88 99 90 88 89 216 283 300 278 278 266 288 279 279 303 304 302 303 295 282 266 248 268 240 243 235 227 224 208 206 202 202 198 205 194 194 224 211 240 249
202 205 193 212 221 257 289 272 307 277 269 257 257 249 252 259 284 297 295 295 288 278 268 255 264 245 244 233 225 223 212 199 216 196 205 188 196 213 194 215 202 224 225
201 202 214 224 271 293 310 281 281 310 294 288 285 272 270 267 288 293 298 281 270 266 287 260 249 234 233 220 219 209 210 208 206 203 187 193 181 201 195 181 209 223 209
208 218 242 298 298 278 286 317 318 311 291 275 286 290 289 263 265 286 294 295 290 281 258 245 232 222 216 224 221 206 208 207 207 196 202 204 197 188 188 191 206 186 211
227 286 288 268 234 309 309 318 292 300 303 302 309 306 299 275 278 282 285 279 258 243 239 236 222 207 216 213 205 201 194 188 203 198 196 191 187 181 189 193 197 197 209
307 269 229 348 286 283 281 273 280 264 257 251 249 259 264 274 269 250 246 240 235 227 233 219 218 207 222 208 214 213 209 209 197 201 205 196 183 214 185 184 191 199 189
257 301 314 264 262 235 250 242 250 217 242 237 228 237 233 225 225 220 220 222 219 209 208 219 212 215 215 206 202 196 197 193 196 196 189 193 187 182 192 183 183 193 197
332 286 247 213 212 232 183 213 202 215 204 204 204 207 206 202 202 192 194 194 194 198 197 195 197 199 195 202 203 172 169 133 158 198 213 201 204 196 198 195 193 186 177
240 232 209 211 197 194 189 194 216 188 194 186 206 188 206 200 180 181 192 188 183 183 179 181 151 149 175 180 182 181 183 194 177 181 182 180 198 198 188 209 204 182 200
194 189 192 185 182 182 180 209 196 182 196 198 197 193 190 187 184 190 195 142 176 192 173 206 188 190 191 195 197 203 193 201 216 201 203 203 203 201 200 201 195 195 198
187 186 182 180 190 187 198 198 201 187 193 193 200 197 201 203 186 191 185 186 184 199 182 190 195 183 195 194 199 201 195 195 194 191 185 180 169 192 194 193 196 176 178
183 199 192 188 188 184 191 170 174 201 189 204 183 179 186 182 194 187 190 193 192 193 192 194 193 191 194 189 189 189 174 173 174 181 191 192 189 198 196 190 199 200 194
198 194 179 170 172 188 180 196 165 170 186 187 190 188 182 186 178 175 187 157 193 192 192 188 162 158 168 176 170 194 193 191 190 189 182 191 180 182 192 190 185 183 178
176 167 170 172 181 173 189 194 160 193 192 154 188 180 190 164 162 161 164 181 155 179 184 185 189 184 182 190 188 187 168 190 188 192 195 196 196 196 183 162 184 191 186
174 178 171 167 170 160 156 149 190 178 180 181 184 191 180 183 190 190 172 177 177 187 191 189 188 184 187 187 190 191 189 193 174 176 182 179 189 196 159 199 200 197 190
193 195 192 182 188 191 182 192 160 192 194 192 189 193 192 190 189 186 176 183 186 191 191 188 186 198 199 188 184 186 192 132 202 171 165 195 198 203 202 204 198 195 196
206 207 207 209 203 201 192 199 203 201 202 201 199 192 195 194 194 194 197 198 198 197 194 192 193 192 192 190 168 207 194 196 204 200 202 197 200 192 218 220 204 190 204
225 223 221 223 222 222 220 208 184 196 210 199 197 205 207 205 206 205 204 196 194 194 194 200 198 204 201 204 202 209 207 210 204 212 206 210 204 206 209 204 203 204 209
229 240 201 198 212 229 222 224 203 228 231 229 227 223 208 214 208 215 225 215 208 229 224 217 210 210 223 222 223 224 216 227 225 225 215 218 217 222 228 227 224 215 222
228 228 214 226 236 201 236 233 228 238 241 232 218 223 249 252 249 228 231 235 217 235 228 224 216 225 235 221 218 225 223 242 243 246 246 243 242 242 224 234 239 241 240
233 241 246 247 227 112 243 249 246 240 244 218 247 223 224 226 234 241 238 239 250 260 236 260 238 234 211 259 243 240 248 262 252 282 307 298 320 307 305 308 316 321 317
255 253 92 207 241 236 253 261 286 276 253 264 262 245 260 270 257 253 241 251 255 263 290 264 268 261 267 305 310 316 300 287 250 255 294 283 267 279 277 286 291 275 281
240 226 122 315 219 240 257 309 308 266 279 270 289 293 282 253 271 288 270 291 262 274 246 263 266 264 276 289 300 295 259 272 286 267 275 262 263 267 271 279 292 283 288
292 294 289 315 124 293 307 272 307 309 308 252 284 302 268 266 267 281 158 84 136 254 302 293 255 291 285 282 275 236 223 305 200 278 279 272 193 282 278 274 269 265 269
Wind_Speed
71 57 28 32 40 50 51 33 55 51 54 50 34 63 61 59 58 57 33 32 39 35 45 42 38 31 34 31 31 27 27 27 23 20 23 24 29 32 37 33 36 39 62
56 57 55 53 56 58 57 64 62 57 61 67 59 58 40 33 30 26 27 27 44 39 41 41 47 45 32 32 29 26 24 26 22 25 21 20 26 32 27 34 36 38 59
59 68 58 60 64 64 56 63 69 69 59 57 53 51 42 39 40 30 27 25 23 25 27 33 34 34 32 33 29 24 25 21 22 22 25 23 22 27 33 28 33 47 53
78 81 70 86 91 87 75 71 64 59 56 52 49 48 45 42 36 31 27 24 20 20 24 27 32 33 35 29 26 26 25 21 22 21 24 26 27 27 26 26 32 28 31
79 80 88 90 80 69 62 60 59 46 45 41 37 37 36 34 28 25 23 17 17 19 22 29 32 28 27 24 25 25 24 22 21 20 21 23 28 27 27 33 23 29 12
86 88 86 68 59 58 56 50 39 35 33 33 33 32 28 26 24 18 15 14 16 19 25 27 23 22 21 26 28 23 24 23 23 19 21 20 24 27 28 25 20 27 19
86 75 59 58 53 48 42 36 29 28 27 25 26 22 18 20 17 12 8 10 14 16 19 21 18 18 20 21 22 23 23 23 23 23 23 22 24 30 27 27 23 18 18
62 56 54 44 34 30 27 24 18 17 18 18 17 14 12 8 7 7 7 9 9 10 14 13 16 17 23 23 27 30 29 29 25 28 29 26 31 24 31 35 28 21 25
54 47 31 32 27 31 20 20 16 24 16 14 14 12 11 12 10 10 10 9 10 14 16 16 19 21 25 28 28 27 29 28 28 29 31 30 35 37 32 36 37 29 25
40 29 28 36 37 25 33 24 34 23 30 26 24 18 18 21 20 24 22 23 22 21 21 23 24 25 27 32 33 35 37 43 40 35 39 33 33 35 34 35 35 37 42
28 28 39 38 37 37 37 39 27 34 32 34 26 32 25 27 32 33 28 29 31 31 32 33 41 42 39 39 39 40 41 41 41 42 44 44 43 41 44 40 37 43 36
44 44 43 42 43 41 42 36 39 40 38 36 37 38 37 38 39 36 33 43 40 36 41 35 40 41 41 41 42 43 47 46 48 46 47 47 46 44 41 41 40 39 39
50 50 49 48 46 48 46 46 45 48 46 44 39 40 37 37 44 42 45 44 45 39 47 44 43 48 45 46 46 47 50 50 52 53 53 53 51 51 50 49 48 51 52
54 53 54 54 54 55 55 52 52 49 51 46 51 50 50 52 46 48 49 48 49 50 50 49 50 52 51 54 55 56 60 60 61 61 60 60 60 59 57 56 56 55 53
55 55 59 57 58 62 62 59 56 60 62 61 58 58 61 58 59 59 58 52 58 58 58 59 50 51 55 55 58 63 64 65 65 65 66 66 65 65 65 65 63 61 60
64 63 64 64 64 65 65 65 58 66 67 52 67 68 66 62 60 60 64 67 57 68 67 67 67 68 69 69 70 71 67 72 72 73 73 73 73 73 69 63 67 70 65
72 74 71 66 69 63 60 56 72 74 76 76 74 73 76 75 72 73 72 73 73 75 75 75 76 75 76 77 78 78 78 80 72 71 74 74 79 82 64 85 85 84 77
78 78 77 80 80 79 75 79 66 80 81 81 82 81 81 81 81 82 80 82 82 82 83 82 82 87 88 85 84 84 87 59 91 77 75 89 90 93 91 92 89 86 86
84 85 86 86 85 85 86 86 87 87 88 87 88 88 88 88 89 89 90 91 91 91 92 90 91 91 91 89 75 96 92 94 98 97 97 92 95 88 102 104 97 90 99
96 97 95 94 94 95 96 95 93 95 97 95 96 97 98 98 99 98 97 95 93 95 95 100 98 101 99 101 100 103 102 106 102 108 104 105 101 105 107 100 100 103 105
98 101 96 98 98 102 102 103 100 102 103 102 104 108 105 105 107 109 113 110 106 114 114 110 109 108 113 112 113 114 108 115 115 116 114 116 115 116 119 118 115 109 115
98 99 99 101 110 106 108 106 107 107 106 107 104 111 109 109 111 115 116 117 107 117 119 118 114 119 120 116 116 119 116 119 121 121 122 122 124 124 115 121 123 124 123
109 117 123 123 107 38 118 123 120 112 115 117 115 116 116 116 114 111 113 113 110 114 120 113 118 119 113 119 127 125 122 116 117 112 110 111 114 116 118 118 119 121 119
122 122 34 94 123 116 124 118 119 131 116 123 118 114 115 120 118 116 115 113 111 115 122 113 114 117 116 115 117 117 116 114 118 112 106 106 108 110 112 110 111 107 106
114 109 49 113 84 114 120 114 115 118 111 109 113 114 113 109 112 116 116 120 115 117 117 114 115 115 110 109 111 111 113 110 109 106 102 104 106 105 106 106 108 107 105
118 114 112 107 60 114 108 117 111 111 110 106 112 112 111 111 110 116 51 24 57 115 115 114 115 114 114 114 110 91 86 111 76 107 106 106 64 107 108 107 104 102 103
Wind_Direction
300 285 277 285 289 288 286 290 285 291 294 301 291 296 294 290 287 284 280 272 271 259 275 270 270 255 268 231 239 243 257 269 265 276 285 291 293 298 293 320 315 333 354
272 273 276 280 277 277 281 280 290 290 293 300 298 297 301 298 291 288 286 281 280 269 266 263 271 272 222 239 239 244 242 258 271 269 284 280 291 292 308 304 314 352 1
285 294 278 277 279 278 287 285 296 300 299 297 297 297 298 296 293 287 283 279 260 242 230 222 233 203 232 221 231 238 237 257 271 282 281 282 286 281 292 345 328 1 6
303 303 297 303 302 302 300 297 299 297 297 295 295 296 295 294 295 291 282 274 257 231 218 216 200 211 214 227 235 238 246 252 255 275 280 287 298 314 304 341 314 356 9
301 301 301 300 301 300 299 297 299 294 294 294 292 292 291 290 289 286 279 265 232 216 208 197 201 215 219 233 239 250 250 260 264 264 273 284 282 307 301 294 334 357 357
299 299 298 301 299 295 298 296 295 293 294 294 294 290 287 287 293 290 274 244 218 197 190 197 213 225 233 233 237 258 260 263 265 266 271 278 283 290 291 292 317 295 347
296 297 296 291 295 296 297 296 296 295 294 293 290 285 282 283 282 278 249 204 189 200 206 209 226 244 246 250 257 263 263 262 267 268 268 260 256 270 281 289 294 296 332
296 288 290 293 296 297 297 297 297 301 303 303 303 306 302 291 261 252 235 233 228 243 224 253 257 266 254 262 259 261 265 268 268 272 276 269 262 290 267 276 281 289 280
283 291 286 289 294 291 297 302 299 287 306 302 304 309 307 307 305 298 292 287 283 273 274 268 267 267 264 270 271 269 270 269 268 269 267 266 266 266 265 268 274 278 274
288 274 278 277 283 286 283 292 292 290 286 284 284 281 280 282 279 278 273 273 273 275 276 277 277 275 272 274 273 273 273 274 273 270 277 271 277 262 272 262 265 272 278
272 269 280 280 282 287 287 291 279 285 287 287 281 284 281 278 279 280 277 275 273 271 272 274 275 275 275 276 275 274 273 272 272 269 269 270 272 272 270 279 270 266 273
280 280 282 279 280 283 283 279 282 281 280 277 278 280 281 281 281 278 276 277 278 274 278 275 271 270 270 269 268 270 272 273 273 272 273 275 274 273 272 270 264 265 266
280 280 279 280 281 284 280 280 278 285 282 284 279 277 275 274 277 274 275 276 275 271 276 272 271 276 271 271 271 272 272 273 274 274 275 277 281 271 269 267 268 272 267
283 278 283 287 288 288 285 284 283 278 282 277 282 282 277 278 270 274 271 270 270 270 270 271 272 271 272 270 270 269 279 281 281 277 273 273 274 273 272 271 271 270 266
277 279 282 282 284 283 284 280 284 286 282 280 277 276 277 274 278 280 272 286 270 269 268 269 281 282 284 279 284 269 269 270 270 271 274 272 278 277 273 273 273 271 271
278 278 278 278 273 279 278 280 288 279 278 282 277 278 275 284 284 284 284 274 288 275 271 270 270 269 269 270 271 271 283 271 272 272 272 272 272 273 275 268 273 272 271
276 275 279 281 280 284 284 286 272 276 273 273 272 273 275 275 273 274 279 276 276 274 273 273 273 274 275 275 275 275 276 275 273 275 275 275 275 275 272 275 275 275 274
270 270 269 271 271 271 271 270 272 271 271 271 272 271 271 271 270 271 276 274 272 271 271 272 274 271 271 274 276 276 275 272 273 273 272 275 275 273 273 272 273 274 274
273 272 273 272 271 270 271 271 271 271 270 270 270 270 270 270 270 270 271 271 271 271 271 271 270 271 271 273 275 270 271 272 271 272 272 274 273 274 273 271 274 275 274
275 274 272 272 272 272 272 270 276 272 269 270 271 269 268 268 267 268 269 273 274 273 273 271 273 269 272 271 272 270 270 269 270 270 271 271 272 273 273 275 275 276 276
276 277 270 271 273 276 271 272 278 268 270 269 269 268 270 270 270 270 269 269 271 270 268 269 271 272 270 270 270 271 274 270 270 270 273 272 273 274 272 272 273 277 275
281 279 278 278 278 272 278 274 271 273 270 267 271 267 275 273 272 269 269 269 272 269 269 270 272 272 271 273 275 274 276 273 273 272 272 273 273 272 276 275 274 272 272
282 282 280 279 281 290 281 279 276 273 273 269 276 269 271 270 271 270 270 271 276 277 271 276 271 271 279 275 273 274 273 273 273 276 275 274 275 273 273 274 275 275 274
279 281 288 276 275 281 279 279 280 275 274 276 276 278 276 278 277 275 270 276 276 279 281 275 276 275 276 280 280 279 278 279 277 274 275 274 273 274 273 275 275 274 274
280 279 281 282 283 277 280 279 279 277 276 276 278 278 278 276 278 278 280 279 276 275 273 274 275 276 277 278 278 277 274 275 274 274 275 274 274 274 274 274 273 273 272
282 281 280 277 292 279 277 279 276 276 277 274 279 277 278 279 279 280 273 290 282 277 278 278 276 278 278 277 275 278 277 276 278 273 274 275 275 275 276 275 275 274 274